Location: Crescent
(42.8242°N, 73.7329°W)
Time: 07:59:07
(UTC+00:00)

Transit 2A - Pass Details

Date: 09 November 2024
Orbit: 592 x 956 km, 66.7° (Epoch: 09 December)

Event Time Altitude Azimuth Distance (km) Brightness Sun altitude
Rises 09:16:05 0° 184° (S) 3,557 9.4 -26.5°
Reaches altitude 10° 09:18:43 10° 177° (S) 2,646 8.8 -26.1°
Maximum altitude 09:24:27 39° 111° (ESE) 1,394 7.7 -25.0°
Drops below altitude 10° 09:30:14 10° 45° (NE) 2,679 9.3 -24.0°
Sets 09:32:55 0° 38° (NE) 3,606 10.0 -23.5°
